Capitol Logistics 266


KCLT
Charlotte/Douglas International Airport
Charlotte, North Carolina, US
KRIV
March Air Reserve Base
Riverside, California, US

Activity Log

Date Flight Route Aircraft Duration
04/16/2020 CPX266 BOBZY4 BOBZY HARAY GQO J118 MEM J66 LIT J14 PNH J6 DRK J231 HIPPI J10 CADEZ TRM ARKOE1 B763 5h 20m

Route Details

Aircraft Information
Primary: Boeing 767-300BDSF
Backup: Not Available
Route Data
Distance: 1804nm
Sched. Duration: 4h 45m
Avg. Duration: 5h 20m (+75m)
Times Flown: 1
Recm'd Route: BOBZY4 BNA J46 TUL PNH J78 DRK J134 TRM ARKOE1
Planned Altitude: 34,000ft
Origin Wx: KCLT 291852Z 21015G24KT 10SM SCT034 BKN043 BKN250 28/21 A2960 RMK AO2 PK WND 23031/1753 SLP015 T02780211
Dest. Wx: KRIV 291858Z AUTO 11006KT 10SM CLR 28/M06 A3006 RMK AO2 SLP172 T02831063
Notes:

Financial History
Total Freight: 105,394lbs
Average Load: 105,394lbs/flt
Fuel Used: 59,852lbs
Avg. Fuel Used: 59,852lbs/flt
Fuel Expense: $50,276
Avg. Fuel Expense: $50,276
Avg. Fuel Cost: $0.84/lbs
Total Gross Income: $174,954
Pilot Pay: $259
Total Expenses: $18,947
Total Revenue: $104,385
Average Revenue: $174,954.05